Time,TemperatureF,DewpointF,PressureIn,WindDirection,WindDirectionDegrees,WindSpeedMPH,WindSpeedGustMPH,Humidity,HourlyPrecipIn,Conditions,Clouds,dailyrainin,SoftwareType,DateUTC
2013-01-21 00:04:00,69.0,67.0,30.05,SSW,204,3.0,5.0,94,-99.99,,,-99.99,,2013-01-21 05:04:00,
2013-01-21 00:13:00,69.0,67.0,30.04,SE,130,3.0,6.0,94,-99.99,,,-99.99,,2013-01-21 05:13:00,
2013-01-21 00:22:00,69.0,67.0,30.04,SE,130,3.0,6.0,94,-99.99,,,-99.99,,2013-01-21 05:22:00,
2013-01-21 00:34:00,69.0,67.0,30.04,ESE,122,3.0,6.0,95,-99.99,,,-99.99,,2013-01-21 05:34:00,
2013-01-21 00:42:00,69.0,67.0,30.04,East,100,5.0,9.0,95,-99.99,,,-99.99,,2013-01-21 05:42:00,
2013-01-21 00:53:00,69.0,67.0,30.03,East,90,6.0,9.0,95,-99.99,,,-99.99,,2013-01-21 05:53:00,
2013-01-21 01:03:00,69.0,67.0,30.03,East,90,6.0,9.0,95,-99.99,,,-99.99,,2013-01-21 06:03:00,
2013-01-21 01:13:00,68.0,67.0,30.03,East,90,4.0,8.0,94,-99.99,,,-99.99,,2013-01-21 06:13:00,
2013-01-21 01:23:00,68.0,67.0,30.03,ENE,57,2.0,5.0,94,-99.99,,,-99.99,,2013-01-21 06:23:00,
2013-01-21 01:33:00,68.0,67.0,30.03,ENE,57,2.0,5.0,94,-99.99,,,-99.99,,2013-01-21 06:33:00,
2013-01-21 01:43:00,68.0,66.0,30.03,NE,48,3.0,5.0,95,-99.99,,,-99.99,,2013-01-21 06:43:00,
2013-01-21 01:53:00,67.0,66.0,30.03,NE,42,3.0,4.0,95,-99.99,,,-99.99,,2013-01-21 06:53:00,
2013-01-21 02:03:00,67.0,66.0,30.03,NE,42,3.0,4.0,95,-99.99,,,-99.99,,2013-01-21 07:03:00,
2013-01-21 02:13:00,67.0,66.0,30.03,NE,51,2.0,4.0,96,-99.99,,,-99.99,,2013-01-21 07:13:00,
2013-01-21 02:23:00,67.0,66.0,30.03,NE,36,2.0,3.0,96,-99.99,,,-99.99,,2013-01-21 07:23:00,
2013-01-21 02:33:00,67.0,66.0,30.03,NE,36,2.0,3.0,96,-99.99,,,-99.99,,2013-01-21 07:33:00,
2013-01-21 02:42:00,67.0,66.0,30.02,East,86,2.0,9.0,97,-99.99,,,-99.99,,2013-01-21 07:42:00,
2013-01-21 02:53:00,67.0,66.0,30.01,East,90,2.0,4.0,97,-99.99,,,-99.99,,2013-01-21 07:53:00,
2013-01-21 03:03:00,67.0,66.0,30.01,East,90,2.0,4.0,97,-99.99,,,-99.99,,2013-01-21 08:03:00,
2013-01-21 03:14:00,66.0,65.0,30.01,SW,221,1.0,2.0,97,-99.99,,,-99.99,,2013-01-21 08:14:00,
2013-01-21 03:23:00,66.0,65.0,30.01,SW,221,1.0,2.0,97,-99.99,,,-99.99,,2013-01-21 08:23:00,
2013-01-21 03:33:00,66.0,65.0,30.01,SW,221,1.0,2.0,97,-99.99,,,-99.99,,2013-01-21 08:33:00,
2013-01-21 03:42:00,65.0,65.0,30.01,NW,325,3.0,11.0,97,-99.99,,,-99.99,,2013-01-21 08:42:00,
2013-01-21 03:53:00,65.0,65.0,30.01,West,264,4.0,31.0,98,-99.99,,,-99.99,,2013-01-21 08:53:00,
2013-01-21 04:03:00,65.0,65.0,30.01,West,264,4.0,31.0,98,-99.99,,,-99.99,,2013-01-21 09:03:00,
2013-01-21 04:12:00,65.0,64.0,30.01,SSE,168,2.0,9.0,98,-99.99,,,-99.99,,2013-01-21 09:12:00,
2013-01-21 04:23:00,65.0,64.0,30.01,SSE,168,2.0,9.0,98,-99.99,,,-99.99,,2013-01-21 09:23:00,
2013-01-21 04:33:00,65.0,65.0,30.01,ESE,114,3.0,31.0,98,-99.99,,,-99.99,,2013-01-21 09:33:00,
2013-01-21 04:42:00,66.0,65.0,30.01,WSW,249,4.0,10.0,98,-99.99,,,-99.99,,2013-01-21 09:42:00,
2013-01-21 04:53:00,66.0,65.0,30.01,SSE,150,3.0,40.0,98,-99.99,,,-99.99,,2013-01-21 09:53:00,
2013-01-21 05:03:00,66.0,65.0,30.01,SSE,150,3.0,40.0,98,-99.99,,,-99.99,,2013-01-21 10:03:00,
2013-01-21 05:12:00,66.0,65.0,30.00,ESE,109,2.0,9.0,98,-99.99,,,-99.99,,2013-01-21 10:12:00,
2013-01-21 05:22:00,66.0,65.0,30.00,ESE,109,2.0,9.0,98,-99.99,,,-99.99,,2013-01-21 10:22:00,
2013-01-21 05:33:00,66.0,65.0,30.00,East,85,2.0,5.0,98,-99.99,,,-99.99,,2013-01-21 10:33:00,
2013-01-21 05:43:00,66.0,65.0,30.00,ESE,121,1.0,3.0,98,-99.99,,,-99.99,,2013-01-21 10:43:00,
2013-01-21 05:53:00,65.0,65.0,30.00,WSW,241,1.0,8.0,98,-99.99,,,-99.99,,2013-01-21 10:53:00,
2013-01-21 06:03:00,65.0,65.0,30.00,WSW,241,1.0,8.0,98,-99.99,,,-99.99,,2013-01-21 11:03:00,
2013-01-21 06:13:00,65.0,65.0,29.99,SSW,201,1.0,7.0,98,-99.99,,,-99.99,,2013-01-21 11:13:00,
2013-01-21 06:23:00,65.0,65.0,29.99,SSW,201,1.0,7.0,98,-99.99,,,-99.99,,2013-01-21 11:23:00,
2013-01-21 06:33:00,65.0,65.0,29.99,SSW,201,1.0,7.0,98,-99.99,,,-99.99,,2013-01-21 11:33:00,
2013-01-21 06:43:00,65.0,65.0,30.00,South,177,1.0,8.0,98,-99.99,,,-99.99,,2013-01-21 11:43:00,
2013-01-21 06:53:00,66.0,65.0,30.00,NE,55,3.0,5.0,98,-99.99,,,-99.99,,2013-01-21 11:53:00,
2013-01-21 07:03:00,66.0,65.0,30.00,NE,55,3.0,5.0,98,-99.99,,,-99.99,,2013-01-21 12:03:00,
2013-01-21 07:12:00,66.0,66.0,30.00,ENE,67,3.0,5.0,98,-99.99,,,-99.99,,2013-01-21 12:12:00,
2013-01-21 07:22:00,66.0,66.0,30.01,ESE,104,2.0,4.0,98,-99.99,,,-99.99,,2013-01-21 12:22:00,
2013-01-21 07:33:00,66.0,66.0,30.01,ESE,104,2.0,4.0,98,-99.99,,,-99.99,,2013-01-21 12:33:00,
2013-01-21 07:42:00,65.0,65.0,30.01,East,94,2.0,4.0,98,-99.99,,,-99.99,,2013-01-21 12:42:00,
2013-01-21 07:53:00,66.0,66.0,30.02,East,90,3.0,5.0,98,-99.99,,,-99.99,,2013-01-21 12:53:00,
2013-01-21 08:03:00,66.0,66.0,30.02,East,90,3.0,5.0,98,-99.99,,,-99.99,,2013-01-21 13:03:00,
2013-01-21 08:13:00,66.0,66.0,30.02,East,94,2.0,4.0,98,-99.99,,,-99.99,,2013-01-21 13:13:00,
2013-01-21 08:23:00,66.0,66.0,30.02,East,94,2.0,4.0,98,-99.99,,,-99.99,,2013-01-21 13:23:00,
2013-01-21 08:33:00,67.0,66.0,30.03,West,275,1.0,7.0,98,-99.99,,,-99.99,,2013-01-21 13:33:00,
2013-01-21 08:43:00,67.0,67.0,30.04,NE,51,1.0,2.0,98,-99.99,,,-99.99,,2013-01-21 13:43:00,
2013-01-21 08:54:00,68.0,68.0,30.04,SW,231,1.0,2.0,98,-99.99,,,-99.99,,2013-01-21 13:54:00,
2013-01-21 09:03:00,68.0,68.0,30.04,SW,231,1.0,2.0,98,-99.99,,,-99.99,,2013-01-21 14:03:00,
2013-01-21 09:13:00,69.0,68.0,30.05,ENE,68,2.0,2.0,98,-99.99,,,-99.99,,2013-01-21 14:13:00,
2013-01-21 09:23:00,69.0,68.0,30.05,ENE,68,2.0,2.0,98,-99.99,,,-99.99,,2013-01-21 14:23:00,
2013-01-21 09:33:00,69.0,68.0,30.05,ENE,68,2.0,2.0,98,-99.99,,,-99.99,,2013-01-21 14:33:00,
2013-01-21 09:43:00,73.0,69.0,30.05,ESE,120,4.0,6.0,86,-99.99,,,-99.99,,2013-01-21 14:43:00,
2013-01-21 09:54:00,74.0,69.0,30.05,SE,133,5.0,8.0,82,-99.99,,,-99.99,,2013-01-21 14:54:00,
2013-01-21 10:03:00,74.0,69.0,30.05,SE,133,5.0,8.0,82,-99.99,,,-99.99,,2013-01-21 15:03:00,
2013-01-21 10:13:00,75.0,69.0,30.05,SE,136,5.0,9.0,79,-99.99,,,-99.99,,2013-01-21 15:13:00,
2013-01-21 10:23:00,75.0,69.0,30.05,SE,136,5.0,9.0,79,-99.99,,,-99.99,,2013-01-21 15:23:00,
2013-01-21 10:33:00,76.0,69.0,30.05,ESE,110,6.0,10.0,76,-99.99,,,-99.99,,2013-01-21 15:33:00,
2013-01-21 10:43:00,76.0,68.0,30.05,ESE,111,7.0,12.0,75,-99.99,,,-99.99,,2013-01-21 15:43:00,
2013-01-21 10:53:00,77.0,69.0,30.06,ESE,112,6.0,10.0,74,-99.99,,,-99.99,,2013-01-21 15:53:00,
2013-01-21 11:04:00,77.0,69.0,30.06,ESE,112,6.0,10.0,74,-99.99,,,-99.99,,2013-01-21 16:04:00,
2013-01-21 11:13:00,77.0,68.0,30.05,ESE,116,6.0,8.0,73,-99.99,,,-99.99,,2013-01-21 16:13:00,
2013-01-21 11:23:00,77.0,68.0,30.05,ESE,116,6.0,8.0,73,-99.99,,,-99.99,,2013-01-21 16:23:00,
2013-01-21 11:33:00,77.0,68.0,30.05,SE,146,6.0,9.0,74,-99.99,,,-99.99,,2013-01-21 16:33:00,
2013-01-21 11:43:00,77.0,68.0,30.05,SSE,164,6.0,9.0,73,-99.99,,,-99.99,,2013-01-21 16:43:00,
2013-01-21 11:53:00,76.0,68.0,30.04,SE,143,5.0,9.0,75,-99.99,,,-99.99,,2013-01-21 16:53:00,
2013-01-21 12:03:00,76.0,68.0,30.04,SE,143,5.0,9.0,75,-99.99,,,-99.99,,2013-01-21 17:03:00,
2013-01-21 12:13:00,79.0,68.0,30.03,SE,141,7.0,11.0,70,-99.99,,,-99.99,,2013-01-21 17:13:00,
2013-01-21 12:23:00,79.0,68.0,30.03,SE,141,7.0,11.0,70,-99.99,,,-99.99,,2013-01-21 17:23:00,
2013-01-21 12:33:00,78.0,68.0,30.03,SSE,165,5.0,8.0,71,-99.99,,,-99.99,,2013-01-21 17:33:00,
2013-01-21 12:43:00,79.0,67.0,30.02,South,174,5.0,11.0,67,-99.99,,,-99.99,,2013-01-21 17:43:00,
2013-01-21 12:53:00,80.0,68.0,30.01,South,185,5.0,9.0,65,-99.99,,,-99.99,,2013-01-21 17:53:00,
2013-01-21 13:03:00,80.0,68.0,30.01,South,185,5.0,9.0,65,-99.99,,,-99.99,,2013-01-21 18:03:00,
2013-01-21 13:12:00,79.0,67.0,30.01,South,187,5.0,8.0,66,-99.99,,,-99.99,,2013-01-21 18:12:00,
2013-01-21 13:23:00,79.0,67.0,30.01,South,187,5.0,8.0,66,-99.99,,,-99.99,,2013-01-21 18:23:00,
2013-01-21 13:33:00,78.0,67.0,30.00,SSW,206,4.0,8.0,69,-99.99,,,-99.99,,2013-01-21 18:33:00,
2013-01-21 13:43:00,78.0,68.0,29.99,South,180,4.0,6.0,70,-99.99,,,-99.99,,2013-01-21 18:43:00,
2013-01-21 13:53:00,77.0,68.0,29.98,SSE,149,4.0,6.0,72,-99.99,,,-99.99,,2013-01-21 18:53:00,
2013-01-21 14:03:00,77.0,68.0,29.98,SSE,149,4.0,6.0,72,-99.99,,,-99.99,,2013-01-21 19:03:00,
2013-01-21 14:13:00,77.0,68.0,29.98,SSE,159,6.0,9.0,73,-99.99,,,-99.99,,2013-01-21 19:13:00,
2013-01-21 14:22:00,77.0,68.0,29.98,SSE,159,6.0,9.0,73,-99.99,,,-99.99,,2013-01-21 19:22:00,
2013-01-21 14:33:00,78.0,69.0,29.97,SE,145,6.0,9.0,73,-99.99,,,-99.99,,2013-01-21 19:33:00,
2013-01-21 14:43:00,79.0,69.0,29.97,SE,137,5.0,7.0,72,-99.99,,,-99.99,,2013-01-21 19:43:00,
2013-01-21 14:53:00,78.0,69.0,29.96,SE,127,6.0,9.0,72,-99.99,,,-99.99,,2013-01-21 19:53:00,
2013-01-21 15:04:00,78.0,69.0,29.96,SE,127,6.0,9.0,72,-99.99,,,-99.99,,2013-01-21 20:04:00,
2013-01-21 15:12:00,77.0,69.0,29.95,SE,126,4.0,8.0,75,-99.99,,,-99.99,,2013-01-21 20:12:00,
2013-01-21 15:23:00,77.0,69.0,29.95,SE,126,4.0,8.0,75,-99.99,,,-99.99,,2013-01-21 20:23:00,
2013-01-21 15:33:00,77.0,69.0,29.95,SE,126,4.0,8.0,75,-99.99,,,-99.99,,2013-01-21 20:33:00,
2013-01-21 15:43:00,76.0,70.0,29.95,East,85,5.0,8.0,79,-99.99,,,-99.99,,2013-01-21 20:43:00,
2013-01-21 15:53:00,76.0,69.0,29.95,ENE,59,6.0,9.0,79,-99.99,,,-99.99,,2013-01-21 20:53:00,
2013-01-21 16:04:00,76.0,69.0,29.95,ENE,59,6.0,9.0,79,-99.99,,,-99.99,,2013-01-21 21:04:00,
2013-01-21 16:12:00,75.0,70.0,29.95,ENE,68,5.0,7.0,82,-99.99,,,-99.99,,2013-01-21 21:12:00,
2013-01-21 16:23:00,75.0,70.0,29.95,ENE,68,5.0,7.0,82,-99.99,,,-99.99,,2013-01-21 21:23:00,
2013-01-21 16:33:00,75.0,70.0,29.95,East,85,5.0,7.0,83,-99.99,,,-99.99,,2013-01-21 21:33:00,
2013-01-21 16:43:00,75.0,69.0,29.95,ESE,115,3.0,6.0,80,-99.99,,,-99.99,,2013-01-21 21:43:00,
2013-01-21 16:54:00,74.0,70.0,29.95,ESE,110,3.0,4.0,86,-99.99,,,-99.99,,2013-01-21 21:54:00,
2013-01-21 17:03:00,74.0,70.0,29.95,ESE,110,3.0,4.0,86,-99.99,,,-99.99,,2013-01-21 22:03:00,
2013-01-21 17:13:00,74.0,71.0,29.95,ENE,70,1.0,3.0,88,-99.99,,,-99.99,,2013-01-21 22:13:00,
2013-01-21 17:23:00,74.0,71.0,29.95,ENE,70,1.0,3.0,88,-99.99,,,-99.99,,2013-01-21 22:23:00,
2013-01-21 17:33:00,74.0,71.0,29.95,East,83,1.0,3.0,88,-99.99,,,-99.99,,2013-01-21 22:33:00,
2013-01-21 17:43:00,75.0,70.0,29.96,SE,145,1.0,4.0,87,-99.99,,,-99.99,,2013-01-21 22:43:00,
2013-01-21 17:53:00,75.0,70.0,29.96,SSE,152,1.0,2.0,86,-99.99,,,-99.99,,2013-01-21 22:53:00,
2013-01-21 18:03:00,75.0,70.0,29.96,SSE,152,1.0,2.0,86,-99.99,,,-99.99,,2013-01-21 23:03:00,
2013-01-21 18:13:00,74.0,71.0,29.96,SW,215,1.0,1.0,89,-99.99,,,-99.99,,2013-01-21 23:13:00,
2013-01-21 18:23:00,74.0,71.0,29.96,SW,215,1.0,1.0,89,-99.99,,,-99.99,,2013-01-21 23:23:00,
2013-01-21 18:33:00,74.0,71.0,29.96,SW,215,1.0,1.0,89,-99.99,,,-99.99,,2013-01-21 23:33:00,
2013-01-21 18:42:00,72.0,68.0,29.97,NW,324,11.0,20.0,86,-99.99,,,-99.99,,2013-01-21 23:42:00,
2013-01-21 18:53:00,71.0,68.0,29.97,NNW,334,11.0,17.0,87,-99.99,,,-99.99,,2013-01-21 23:53:00,
2013-01-21 19:03:00,71.0,68.0,29.97,NNW,334,11.0,17.0,87,-99.99,,,-99.99,,2013-01-22 00:03:00,
2013-01-21 19:12:00,71.0,67.0,29.98,NNW,329,9.0,13.0,89,-99.99,,,-99.99,,2013-01-22 00:12:00,
2013-01-21 19:23:00,71.0,67.0,29.98,NNW,329,9.0,13.0,89,-99.99,,,-99.99,,2013-01-22 00:23:00,
2013-01-21 19:33:00,71.0,67.0,29.98,NNW,334,8.0,18.0,89,-99.99,,,-99.99,,2013-01-22 00:33:00,
2013-01-21 19:43:00,71.0,67.0,29.99,NNW,331,9.0,15.0,86,-99.99,,,-99.99,,2013-01-22 00:43:00,
2013-01-21 19:53:00,71.0,66.0,29.99,NNW,329,10.0,16.0,83,-99.99,,,-99.99,,2013-01-22 00:53:00,
2013-01-21 20:02:00,71.0,66.0,29.99,NNW,329,10.0,16.0,83,-99.99,,,-99.99,,2013-01-22 01:02:00,
2013-01-21 20:12:00,70.0,65.0,29.99,NW,325,7.0,12.0,83,-99.99,,,-99.99,,2013-01-22 01:12:00,
2013-01-21 20:23:00,70.0,65.0,29.99,NW,325,7.0,12.0,83,-99.99,,,-99.99,,2013-01-22 01:23:00,
2013-01-21 20:33:00,70.0,65.0,29.99,NW,320,5.0,9.0,85,-99.99,,,-99.99,,2013-01-22 01:33:00,
2013-01-21 20:43:00,69.0,65.0,29.99,NW,324,4.0,7.0,87,-99.99,,,-99.99,,2013-01-22 01:43:00,
2013-01-21 20:53:00,68.0,65.0,30.00,NW,322,5.0,7.0,89,-99.99,,,-99.99,,2013-01-22 01:53:00,
2013-01-21 21:03:00,68.0,65.0,30.00,NW,322,5.0,7.0,89,-99.99,,,-99.99,,2013-01-22 02:03:00,
2013-01-21 21:12:00,68.0,66.0,30.00,NW,325,6.0,8.0,91,-99.99,,,-99.99,,2013-01-22 02:12:00,
2013-01-21 21:23:00,68.0,66.0,30.00,NW,325,6.0,8.0,91,-99.99,,,-99.99,,2013-01-22 02:23:00,
2013-01-21 21:32:00,68.0,66.0,30.00,NW,325,6.0,8.0,91,-99.99,,,-99.99,,2013-01-22 02:32:00,
2013-01-21 21:43:00,68.0,66.0,30.00,NW,308,6.0,10.0,93,-99.99,,,-99.99,,2013-01-22 02:43:00,
2013-01-21 21:53:00,67.0,66.0,30.01,WNW,301,6.0,10.0,94,-99.99,,,-99.99,,2013-01-22 02:53:00,
2013-01-21 22:03:00,67.0,66.0,30.01,WNW,301,6.0,10.0,94,-99.99,,,-99.99,,2013-01-22 03:03:00,
2013-01-21 22:12:00,67.0,65.0,30.01,NW,310,6.0,11.0,94,-99.99,,,-99.99,,2013-01-22 03:12:00,
2013-01-21 22:22:00,67.0,65.0,30.01,NW,310,6.0,11.0,94,-99.99,,,-99.99,,2013-01-22 03:22:00,
2013-01-21 22:33:00,67.0,65.0,30.01,NW,309,5.0,9.0,95,-99.99,,,-99.99,,2013-01-22 03:33:00,
2013-01-21 22:42:00,67.0,65.0,30.01,NW,309,5.0,9.0,95,-99.99,,,-99.99,,2013-01-22 03:42:00,
2013-01-21 22:53:00,66.0,65.0,30.02,NW,325,6.0,10.0,95,-99.99,,,-99.99,,2013-01-22 03:53:00,
2013-01-21 23:03:00,66.0,65.0,30.02,NW,325,6.0,10.0,95,-99.99,,,-99.99,,2013-01-22 04:03:00,
2013-01-21 23:12:00,66.0,65.0,30.02,NNW,330,7.0,11.0,96,-99.99,,,-99.99,,2013-01-22 04:12:00,
2013-01-21 23:22:00,66.0,65.0,30.02,NNW,330,7.0,11.0,96,-99.99,,,-99.99,,2013-01-22 04:22:00,
2013-01-21 23:33:00,66.0,65.0,30.02,NNW,328,7.0,10.0,96,-99.99,,,-99.99,,2013-01-22 04:33:00,
2013-01-21 23:42:00,66.0,65.0,30.02,NNW,328,7.0,10.0,96,-99.99,,,-99.99,,2013-01-22 04:42:00,
2013-01-21 23:53:00,65.0,64.0,30.02,NW,306,4.0,6.0,97,-99.99,,,-99.99,,2013-01-22 04:53:00,